Showing default

COSMOS 1566, 15005

Orbit data source: Space-Track

COSMOS 1566, 15005 is a payload satellite owned by GUKOS (CIS) in LEO that was launched on Mon, 28 May 1984 UTC via a KOSMOS 11K65M launch vehicle from the Plesetsk Missile And Space Complex (PKMTR). Payload-class satellites include a variety of spacecraft equipped with specific instruments for various scientific and technological missions. These include communications satellites like Starlink; space stations such as the ISS; scientific satellites like the Hubble; Earth observation satellites from companies like Planet Labs, Umbra, and HawkEye 360; GPS; miniature CubeSats for education and research; and military/defense satellites.

Loading next visibility...
Identifier
15005, 1984-052H
Orbit
LEO
Country
Flag of CISCIS
Related business
Manufacturer
NPO PM
Mission
Spacecraft
Bus & Motor
STRELA-1 11F625, Unknown motor
Mass
60 kg wet, 60 kg dry
Launch date (UTC)
1984-05-28 (42 years ago)
Launch vehicle
KOSMOS 11K65M
Launch site
Plesetsk Missile And Space Complex (PKMTR)
Object type
Payload
Rocket body
Debris
Shape & HBR
Unknown
Radar Cross Section
Medium (>0.1 m² and <1 m²)

Expand to show TLE details & history
Last TLE update: 5 hours ago

TLE from 5 hours ago
0 COSMOS 1566
1 15005U 84052H   26127.14115097 -.00000000  00000-0  96014-4 0  9991
2 15005  74.0110  87.0758 0051811 193.2452 178.3665 12.57383734924951
Epoch: 2026-05-07T03:23Z
TLE epoch observation values (Epoch: 2026-05-07T03:23:15.443Z)
Latitude
11.13408°
Longitude
174.48687°
Altitude
1,475.865 km
Speed
7.108 km/s
True Right ascension
06h 01m 10s
True Declination
11° 04' 30"
Sunlit
Object was in daylight at epoch
Visualization orbit readout
Latitude
Unknown
Longitude
Unknown
Altitude
Unknown
Speed
Unknown
Apparent Right ascension
Unknown
Apparent Declination
Unknown
Sunlit
N/A
Visualization observer readout
Local Sidereal Time
16:00:01
Azimuth
Unknown
Elevation
Unknown
Doppler factor
Unknown
Orbital elements
Apogee altitude
1,472.053 km
Perigee altitude
1,391.127 km
Semi-major axis
7,809.727 km
Eccentricity
0.00518
Inclination
74.011°
RAAN
87.0758°
Arg. of periapsis
193.2452°
True anomaly
178.38332°
Mean anomaly
178.3665°
Eccentric anomaly
178.37492°
Mean motion
3.14477 °/min
Orbital period
114.48 mins
BSTAR
0.000096014
Loading maneuver chart data...
Computing Atmospheric mass density...
Loading historical data...
Loading historical data...
Loading historical data...
Loading historical data...
Loading historical data...
Loading historical data...
Loading historical data...

Documentation

Showing up to 5 results
|